Weather History for Greenville, TX

Change the Weather History Date:

Thursday, December 12, 2013

  Actual Average Record
Temperature  
Mean Temperature 38 °F -  
Max Temperature 50 °F 55 °F 69 °F (1996)
Min Temperature 26 °F 38 °F 19 °F (2012)
Degree Days  
Heating Degree Days 27    
Moisture  
Dew Point 28 °F    
Average Humidity 75    
Maximum Humidity 100    
Minimum Humidity 37    
Precipitation  
Precipitation 0.01 in - - ()
Sea Level Pressure  
Sea Level Pressure 30.51 in    
Wind  
Wind Speed 1 mph (SE)    
Max Wind Speed 7 mph    
Max Gust Speed -    
Visibility 9 miles    
Events      
Averages and records for this station are not official NWS values.
T = Trace of Precipitation, MM = Missing Value Source: NWS Daily Summary

Daily Weather History Graph

Daily Weather History Graph

Search for Another Location

Airport:

Trip Planner

Search our weather history database for the weather conditions in past years. The results will help you decide how hot, cold, wet, or windy it might be!

Date:

Astronomy

Dec. 12, 2013 Rise Set
Actual Time 7:18 AM CST 5:18 PM CST
Civil Twilight 6:50 AM CST 5:45 PM CST
Nautical Twilight 6:19 AM CST 6:16 PM CST
Astronomical Twilight 5:49 AM CST 6:46 PM CST
Moon 2:16 PM CST (12/12) 2:52 AM CST (12/12)
Length of Visible Light 10h 54m
Length of Day
10h 00m
Waxing Gibbous, 80% of the Moon is Illuminated
Dec 12
Waxing Gibbous
Dec 17
Full
Dec 25
Last Quarter
Jan 1
New
Jan 7
First Quarter

Hourly Weather History & Observations

Time (CST) Temp. Windchill Dew Point Humidity Pressure Visibility Wind Dir Wind Speed Gust Speed Precip Events Conditions
12:15 AM 30.2 °F - 26.6 °F 86% 30.58 in 10.0 mi Calm Calm - N/A   Clear
12:35 AM 30.2 °F - 26.6 °F 86% 30.59 in 10.0 mi Calm Calm - N/A   Clear
12:55 AM 30.2 °F - 26.6 °F 86% 30.58 in 10.0 mi Calm Calm - N/A   Clear
1:15 AM 30.2 °F - 26.6 °F 86% 30.57 in 7.0 mi Calm Calm - N/A   Clear
1:35 AM 30.2 °F - 26.6 °F 86% 30.57 in 7.0 mi Calm Calm - N/A   Clear
1:55 AM 30.2 °F - 26.6 °F 86% 30.57 in 7.0 mi Calm Calm - N/A   Clear
2:15 AM 28.4 °F - 26.6 °F 93% 30.58 in 5.0 mi Calm Calm - N/A   Clear
2:35 AM 28.4 °F - 26.6 °F 93% 30.59 in 7.0 mi Calm Calm - N/A   Clear
2:55 AM 28.4 °F 24.6 °F 26.6 °F 93% 30.59 in 7.0 mi North 3.5 mph - N/A   Clear
3:15 AM 28.4 °F - 26.6 °F 93% 30.59 in 7.0 mi Calm Calm - N/A   Clear
3:35 AM 28.4 °F - 26.6 °F 93% 30.59 in 7.0 mi Calm Calm - N/A   Clear
3:55 AM 28.4 °F - 26.6 °F 93% 30.59 in 7.0 mi Calm Calm - N/A   Clear
4:15 AM 28.4 °F - 26.6 °F 93% 30.59 in 7.0 mi Calm Calm - N/A   Clear
4:35 AM 28.4 °F - 26.6 °F 93% 30.59 in 7.0 mi Calm Calm - N/A   Clear
4:55 AM 26.6 °F - 26.6 °F 100% 30.59 in 5.0 mi Calm Calm - N/A   Clear
5:15 AM 26.6 °F - 26.6 °F 100% 30.58 in 5.0 mi Calm Calm - N/A   Clear
5:35 AM 26.6 °F - 24.8 °F 93% 30.58 in 5.0 mi Calm Calm - N/A   Clear
5:55 AM 28.4 °F - 26.6 °F 93% 30.58 in 7.0 mi Calm Calm - N/A   Clear
6:15 AM 28.4 °F - 26.6 °F 93% 30.59 in 7.0 mi Calm Calm - N/A   Clear
6:35 AM 28.4 °F - 26.6 °F 93% 30.59 in 7.0 mi Calm Calm - N/A   Clear
6:55 AM 26.6 °F - 24.8 °F 93% 30.59 in 5.0 mi Calm Calm - N/A   Clear
7:15 AM 26.6 °F - 24.8 °F 93% 30.60 in 5.0 mi Calm Calm - N/A   Clear
7:35 AM 26.6 °F - 24.8 °F 93% 30.60 in 4.0 mi Calm Calm - N/A   Clear
7:55 AM 26.6 °F - 24.8 °F 93% 30.60 in 3.0 mi Calm Calm - N/A   Clear
8:15 AM 28.4 °F - 26.6 °F 93% 30.61 in 4.0 mi Calm Calm - N/A   Clear
8:35 AM 30.2 °F - 28.4 °F 93% 30.61 in 5.0 mi Calm Calm - N/A   Clear
8:55 AM 32.0 °F - 28.4 °F 87% 30.61 in 5.0 mi Calm Calm - N/A   Mist
9:15 AM 33.8 °F - 30.2 °F 87% 30.62 in 7.0 mi Calm Calm - N/A   Unknown
9:35 AM 35.6 °F 31.7 °F 30.2 °F 81% 30.62 in 10.0 mi SE 4.6 mph - N/A   Unknown
9:55 AM 35.6 °F 29.9 °F 30.2 °F 81% 30.62 in 10.0 mi ESE 6.9 mph - N/A   Unknown
10:15 AM 37.4 °F 32.1 °F 30.2 °F 75% 30.62 in 10.0 mi SE 6.9 mph - N/A   Clear
10:35 AM 37.4 °F 33.8 °F 28.4 °F 70% 30.62 in 10.0 mi ESE 4.6 mph - N/A   Clear
10:55 AM 41.0 °F 38.0 °F 28.4 °F 61% 30.61 in 10.0 mi SSE 4.6 mph - 0.01 in   Clear
11:15 AM 41.0 °F 37.1 °F 28.4 °F 61% 30.61 in 10.0 mi SE 5.8 mph - N/A   Clear
11:35 AM 42.8 °F 41.1 °F 28.4 °F 57% 30.60 in 10.0 mi SE 3.5 mph - N/A   Clear
11:55 AM 42.8 °F 40.1 °F 28.4 °F 57% 30.58 in 10.0 mi SE 4.6 mph - N/A   Clear
12:15 PM 42.8 °F - 28.4 °F 57% 30.57 in 10.0 mi Calm Calm - N/A   Clear
12:35 PM 44.6 °F - 28.4 °F 53% 30.54 in 10.0 mi Calm Calm - N/A   Clear
12:55 PM 46.4 °F - 26.6 °F 46% 30.53 in 10.0 mi Calm Calm - N/A   Clear
1:15 PM 46.4 °F - 28.4 °F 50% 30.51 in 10.0 mi Calm Calm - N/A   Clear
1:35 PM 46.4 °F 45.2 °F 28.4 °F 50% 30.51 in 10.0 mi South 3.5 mph - N/A   Clear
1:55 PM 48.2 °F - 28.4 °F 46% 30.49 in 10.0 mi Calm Calm - N/A   Clear
2:15 PM 48.2 °F - 26.6 °F 43% 30.49 in 10.0 mi Calm Calm - N/A   Clear
2:55 PM 48.2 °F - 26.6 °F 43% 30.47 in 10.0 mi Calm Calm - N/A   Clear
3:15 PM 50.0 °F - 24.8 °F 37% 30.45 in 10.0 mi Calm Calm - N/A   Clear
3:35 PM 50.0 °F - 26.6 °F 40% 30.45 in 10.0 mi Calm Calm - N/A   Clear
3:55 PM 50.0 °F - 24.8 °F 37% 30.45 in 10.0 mi South 3.5 mph - N/A   Clear
4:15 PM 50.0 °F - 26.6 °F 40% 30.43 in 10.0 mi Calm Calm - N/A   Clear
4:35 PM 46.4 °F 45.2 °F 26.6 °F 46% 30.44 in 10.0 mi South 3.5 mph - N/A   Clear
4:55 PM 42.8 °F 40.1 °F 26.6 °F 53% 30.42 in 10.0 mi SSE 4.6 mph - N/A   Clear
5:15 PM 37.4 °F - 28.4 °F 70% 30.41 in 10.0 mi Calm Calm - N/A   Clear
5:35 PM 37.4 °F - 30.2 °F 75% 30.41 in 10.0 mi Calm Calm - N/A   Clear
5:55 PM 37.4 °F - 28.4 °F 70% 30.41 in 10.0 mi Calm Calm - N/A   Clear
6:15 PM 37.4 °F - 30.2 °F 75% 30.40 in 10.0 mi Calm Calm - N/A   Clear
6:35 PM 37.4 °F - 30.2 °F 75% 30.40 in 10.0 mi Calm Calm - N/A   Clear
6:55 PM 41.0 °F - 30.2 °F 65% 30.41 in 10.0 mi Calm Calm - N/A   Clear
7:15 PM 37.4 °F - 30.2 °F 75% 30.40 in 10.0 mi Calm Calm - N/A   Clear
7:35 PM 37.4 °F - 32.0 °F 81% 30.40 in 10.0 mi Calm Calm - N/A   Clear
7:55 PM 35.6 °F - 32.0 °F 87% 30.39 in 10.0 mi Calm Calm - N/A   Clear
8:15 PM 35.6 °F - 32.0 °F 87% 30.39 in 10.0 mi Calm Calm - N/A   Clear
8:35 PM 35.6 °F - 32.0 °F 87% 30.38 in 10.0 mi Calm Calm - N/A   Clear
8:55 PM 37.4 °F - 32.0 °F 81% 30.38 in 10.0 mi Calm Calm - N/A   Clear
9:15 PM 37.4 °F - 32.0 °F 81% 30.37 in 10.0 mi Calm Calm - N/A   Clear
9:35 PM 37.4 °F - 32.0 °F 81% 30.37 in 10.0 mi Calm Calm - N/A   Clear
9:55 PM 37.4 °F - 32.0 °F 81% 30.37 in 10.0 mi Calm Calm - N/A   Clear
10:15 PM 37.4 °F - 32.0 °F 81% 30.36 in 10.0 mi Calm Calm - N/A   Clear
10:35 PM 39.2 °F 35.9 °F 30.2 °F 70% 30.36 in 10.0 mi ESE 4.6 mph - N/A   Clear
10:55 PM 39.2 °F 35.9 °F 30.2 °F 70% 30.35 in 10.0 mi SE 4.6 mph - N/A   Clear
11:15 PM 41.0 °F 38.0 °F 30.2 °F 65% 30.35 in 10.0 mi SSE 4.6 mph - N/A   Scattered Clouds
11:35 PM 39.2 °F - 30.2 °F 70% 30.34 in 10.0 mi Calm Calm - N/A   Scattered Clouds
11:55 PM 39.2 °F 37.0 °F 30.2 °F 70% 30.32 in 10.0 mi SE 3.5 mph - N/A   Clear